Weather History for KGLH - February, 2012

Change the Weather History Date:

Tuesday, February 14, 2012

  Actual Average Record
Temperature  
Mean Temperature 43 °F 46 °F  
Max Temperature 46 °F 57 °F 82 °F (1962)
Min Temperature 39 °F 36 °F 17 °F (1960)
Degree Days  
Heating Degree Days 22 19  
Month to date heating degree days 270 287  
Since 1 July heating degree days 1790 2076  
Cooling Degree Days 0 0  
Month to date cooling degree days 0 0  
Year to date cooling degree days 0 1  
Moisture  
Dew Point 41 °F    
Average Humidity 92    
Maximum Humidity 100    
Minimum Humidity 83    
Precipitation  
Precipitation 0.00 in 0.19 in 1.59 in (1932)
Month to date precipitation 1.99 2.84  
Year to date precipitation 3.43 7.81  
Sea Level Pressure  
Sea Level Pressure 30.02 in    
Wind  
Wind Speed 5 mph (WNW)    
Max Wind Speed 10 mph    
Max Gust Speed 13 mph    
Visibility 8 miles    
Events      
T = Trace of Precipitation, MM = Missing Value Source: NWS Daily Summary

Daily Weather History Graph

Daily Weather History Graph

Search for Another Location

Airport or City:

Trip Planner

Search our weather history database for the weather conditions in past years. The results will help you decide how hot, cold, wet, or windy it might be!

Date:

Astronomy

Feb. 14, 2012 Rise Set
Actual Time 6:49 AM CST 5:47 PM CST
Civil Twilight 6:23 AM CST 6:12 PM CST
Nautical Twilight 5:54 AM CST 6:41 PM CST
Astronomical Twilight 5:25 AM CST 7:10 PM CST
Moon 12:28 AM CST (2/14) 11:00 AM CST (2/14)
Length of Visible Light 11h 48m
Length of Day
10h 57m
Waning Gibbous, 50% of the Moon is Illuminated
Feb 14
Waning Gibbous
Feb 21
New
Feb 29
First Quarter
Mar 8
Full
Mar 14
Last Quarter

Hourly Weather History & Observations

Time (CST) Temp. Windchill Dew Point Humidity Pressure Visibility Wind Dir Wind Speed Gust Speed Precip Events Conditions
12:07 AM 42.8 °F 41.1 °F 41.0 °F 93% 29.91 in 10.0 mi SSE 3.5 mph - N/A   Overcast
12:53 AM 42.1 °F 40.2 °F 42.1 °F 100% 29.93 in 10.0 mi SSE 3.5 mph - N/A   Overcast
1:05 AM 42.8 °F 40.1 °F 42.8 °F 100% 29.90 in 10.0 mi SSE 4.6 mph - N/A   Overcast
1:53 AM 43.0 °F 41.3 °F 42.1 °F 97% 29.93 in 10.0 mi South 3.5 mph - N/A   Overcast
2:05 AM 42.8 °F 40.1 °F 42.8 °F 100% 29.91 in 9.0 mi South 4.6 mph - N/A   Overcast
2:24 AM 42.8 °F 41.1 °F 42.8 °F 100% 29.91 in 8.0 mi SSW 3.5 mph - N/A   Overcast
2:53 AM 42.8 °F - 42.8 °F 100% 29.91 in 5.0 mi Calm Calm - N/A   Overcast
3:04 AM 42.8 °F - 42.8 °F 100% 29.91 in 1.8 mi Calm Calm - N/A   Overcast
3:20 AM 42.8 °F - 42.8 °F 100% 29.92 in 1.5 mi Calm Calm - N/A   Overcast
3:53 AM 43.0 °F 41.3 °F 43.0 °F 100% 29.95 in 1.2 mi WNW 3.5 mph - N/A   Overcast
4:53 AM 43.0 °F 40.3 °F 43.0 °F 100% 29.96 in 0.8 mi NW 4.6 mph - 0.01 in   Overcast
5:32 AM 42.8 °F 38.6 °F 42.8 °F 100% 29.95 in 1.8 mi NW 6.9 mph - N/A   Overcast
5:35 AM 42.8 °F 39.3 °F 42.8 °F 100% 29.95 in 3.0 mi NW 5.8 mph - N/A   Overcast
6:34 AM 42.8 °F 39.3 °F 41.0 °F 93% 29.97 in 8.0 mi NW 5.8 mph - N/A   Overcast
6:53 AM 42.1 °F 38.4 °F 41.0 °F 96% 30.01 in 9.0 mi NW 5.8 mph - N/A   Overcast
7:53 AM 42.1 °F 37.1 °F 39.9 °F 92% 30.04 in 10.0 mi NW 8.1 mph - N/A   Overcast
8:53 AM 42.1 °F 37.1 °F 39.9 °F 92% 30.04 in 10.0 mi NNW 8.1 mph - N/A   Overcast
9:06 AM 42.8 °F 37.0 °F 41.0 °F 93% 30.02 in 10.0 mi NW 10.4 mph - N/A   Overcast
9:39 AM 42.8 °F 38.6 °F 41.0 °F 93% 30.03 in 9.0 mi NNW 6.9 mph - N/A   Overcast
9:53 AM 43.0 °F 40.3 °F 41.0 °F 93% 30.07 in 10.0 mi WNW 4.6 mph - N/A   Overcast
10:12 AM 42.8 °F 39.3 °F 41.0 °F 93% 30.05 in 10.0 mi WNW 5.8 mph - N/A   Overcast
10:53 AM 44.1 °F 40.8 °F 39.9 °F 85% 30.08 in 10.0 mi WNW 5.8 mph - N/A   Overcast
11:10 AM 44.6 °F 42.2 °F 39.2 °F 81% 30.06 in 10.0 mi West 4.6 mph - N/A   Overcast
11:49 AM 44.6 °F 40.7 °F 39.2 °F 81% 30.06 in 10.0 mi West 6.9 mph - N/A   Overcast
11:53 AM 45.0 °F 41.8 °F 39.9 °F 82% 30.09 in 10.0 mi West 5.8 mph - N/A   Overcast
12:40 PM 44.6 °F 41.4 °F 39.2 °F 81% 30.04 in 10.0 mi NW 5.8 mph - N/A   Overcast
12:53 PM 45.0 °F 42.6 °F 39.9 °F 82% 30.06 in 10.0 mi Variable 4.6 mph - N/A   Overcast
1:53 PM 45.0 °F - 39.9 °F 82% 30.06 in 10.0 mi Calm Calm - N/A   Overcast
2:53 PM 45.0 °F 41.8 °F 39.9 °F 82% 30.06 in 10.0 mi WNW 5.8 mph - N/A   Overcast
3:53 PM 45.0 °F 43.5 °F 39.0 °F 80% 30.06 in 10.0 mi NNE 3.5 mph - N/A   Overcast
4:53 PM 45.0 °F - 39.9 °F 82% 30.07 in 10.0 mi Calm Calm - N/A   Overcast
5:53 PM 44.1 °F 42.5 °F 39.0 °F 82% 30.08 in 10.0 mi East 3.5 mph - N/A   Overcast
6:53 PM 44.1 °F 40.1 °F 41.0 °F 89% 30.09 in 10.0 mi SE 6.9 mph - N/A   Overcast
7:53 PM 45.0 °F 40.6 °F 41.0 °F 86% 30.09 in 10.0 mi SE 8.1 mph - N/A   Overcast
8:53 PM 45.0 °F 40.6 °F 42.1 °F 90% 30.11 in 10.0 mi SE 8.1 mph - N/A   Overcast
9:53 PM 44.1 °F 40.1 °F 42.1 °F 93% 30.11 in 10.0 mi SE 6.9 mph - N/A   Overcast
10:36 PM 44.6 °F 42.2 °F 41.0 °F 87% 30.09 in 10.0 mi SE 4.6 mph - N/A   Scattered Clouds
10:53 PM 43.0 °F - 41.0 °F 93% 30.12 in 10.0 mi Calm Calm - N/A   Clear
11:53 PM 39.2 °F 37.0 °F 39.2 °F 100% 30.09 in 9.0 mi NE 3.5 mph - N/A   Clear